52P/Harrington-Abell (2021)

Japanese version
Home page
Updated on December 1, 2021

---------------------------------------------------------------------

* Profile

* Pictures

* Orbital Elements

Epoch 2021 July 5.0 TT = JDT 2459400.5
T 2021 Oct. 5.20046 TT                                  Rudenko
q   1.7772169            (2000.0)            P               Q
n   0.12977891     Peri.  139.59754     -0.44925241     -0.89066887
a   3.8636695      Node   336.83849     +0.76705194     -0.34444052
e   0.5400184      Incl.   10.23169     +0.45804322     -0.29676538
P   7.59
From 1378 observations 1983 Sept. 18-2021 Aug. 31, mean residual 0".7.
     Nongravitational parameters A1 = -0.08, A2 = +0.0065.

* Finding Charts

* Magnitudes Graph

        m1 = 11.0 + 5 log d + 16.0 log r

---------------------------------------------------------------------

The orbital elements are published on M.P.E.C. 2021-R75.
The charts are made with StellaNavigator Ver.10 (AstroArts).
The magnitudes graphs are made with Comet for Windows.

---------------------------------------------------------------------

Copyright(C) Seiichi Yoshida (comet@aerith.net). All rights reserved.